Regional Weather Roundup
Issued by NWS Little Rock, AR

Home | Current Version | Previous Version | Graphics & Text | Print | Product List | Glossary On
Versions: 1 2 3 4 5 6 7 8 9 10 11 12 13 14 15 16 17 18 19 20 21 22 23 24 25 26 27 28 29 30 31 32
000
ASUS44 KLZK 200405
RWRLZK

WEATHER ROUNDUP FOR ARKANSAS
NATIONAL WEATHER SERVICE LITTLE ROCK AR
1100 PM CDT WED JUL 19 2017

NOTE: "FAIR" INDICATES FEW OR NO CLOUDS BELOW 12,000 FEET WITH NO
SIGNIFICANT WEATHER AND/OR OBSTRUCTIONS TO VISIBILITY.

ARZ001-003-010-029-200500-
NORTHWEST ARKANSAS

CITY           SKY/WX    TMP DP  RH WIND       PRES   REMARKS
FAYETTEVILLE   CLEAR     75  74  96 CALM      30.12S
FORT SMITH     CLEAR     85  32  15 CALM      30.06R
HARRISON       CLEAR     79  70  74 S3        30.13S
BENTONVILLE    CLEAR     81  66  61 CALM      30.13R
ROGERS         CLEAR     79  69  71 S6        30.13S
SILOAM SPGS    CLEAR     79  68  69 SE5       30.12R
HIGHFILL       CLEAR     79  71  76 CALM      30.12R
$$

ARZ004-005-016-200500-
NORTH CENTRAL ARKANSAS

CITY           SKY/WX    TMP DP  RH WIND       PRES   REMARKS
BATESVILLE     CLEAR     82  72  69 S3        30.09S HX  87
FLIPPIN        CLEAR     79  68  69 S3        30.08S
MTN HOME       CLEAR     79  71  76 S5        30.10R
$$

ARZ040-041-200500-
WEST CENTRAL ARKANSAS

CITY           SKY/WX    TMP DP  RH WIND       PRES   REMARKS
MENA           CLEAR     79  77  94 CALM      30.13R
MOUNT IDA      CLEAR     79  77  94 CALM      30.09R FOG
$$

ARZ009-017-025-026-028-200500-
NORTHEAST ARKANSAS

CITY           SKY/WX    TMP DP  RH WIND       PRES   REMARKS
CORNING        LGT RAIN  82  79  89 SE3       30.08R HX  93
JONESBORO      CLEAR     80  77  90 CALM      30.08R HX  87
WALNUT RIDGE   CLEAR     81  75  83 S5        30.07S HX  86
BLYTHEVILLE    CLEAR     83  74  74 S6        30.09R HX  89
$$

ARZ022-023-033-042-044-200500-
CENTRAL ARKANSAS

CITY           SKY/WX    TMP DP  RH WIND       PRES   REMARKS
LITTLE ROCK    PTCLDY    82  77  84 S5        30.09R HX  90
N LITTLE ROCK    N/A     84  76  76 CALM      30.08R HX  92
JACKSONVILLE   CLEAR     79  77  92 CALM      30.09R
CONWAY           N/A     81  77  89 NE5       30.07R HX  88
SEARCY         CLEAR     78  78 100 CALM      30.10R
HOT SPRINGS    CLEAR     81  77  88 E5        30.10R HX  88
RUSSELLVILLE   CLEAR     78  76  93 CALM      30.08R
CLINTON        FAIR      77  75  94 CALM      30.10S
$$

ARZ036-200500-
EAST ARKANSAS

CITY           SKY/WX    TMP DP  RH WIND       PRES   REMARKS
WEST MEMPHIS   CLEAR     80  75  84 S3        30.07S HX  85
$$

ARZ050-053-066-070-073-200500-
SOUTHWEST ARKANSAS

CITY           SKY/WX    TMP DP  RH WIND       PRES   REMARKS
ARKADELPHIA    FAIR      79  78  97 CALM      30.09R
CAMDEN         CLEAR     81  75  83 CALM      30.08R HX  86
TEXARKANA      CLEAR     81  72  74 CALM      30.08R HX  85
EL DORADO      CLEAR     79  77  94 CALM      30.09R
DE QUEEN       PTCLDY    82  81  96 CALM      30.06R HX  95
$$

ARZ056-057-069-200500-
SOUTHEAST ARKANSAS

CITY           SKY/WX    TMP DP  RH WIND       PRES   REMARKS
PINE BLUFF     CLEAR     80  76  87 CALM      30.09R HX  86
STUTTGART      CLEAR     86  64  48 SE5       30.10S HX  87
MONTICELLO     CLEAR     81  77  88 CALM      30.09R HX  88

$$






USA.gov is the U.S. government's official web portal to all federal, state and local government web resources and services.